Header for Extended Forecast Station List Page

Search by: ID | Name | Date | Parm | Value | Avg | % Avg
Sort by: ID | Name | Date | Parm | Value | Avg | % Avg

Enter search or view all records.

Click on id for station plot
#IDNameDateParmValueAvg% Avg
0LYDM8KOOTENAI-LIBBY DAM12-10-2018INFLOW (KAF)72078592
1LEOI1KOOTENAI-AT LEONIA12-10-2018DISCHARGE (KAF)16781308128
2BFEI1KOOTENAI-AT BONNERS FERRY12-10-2018STAGE (FT)MMM
3FCFM8NF FLATHEAD-NEAR COLUMBIA FALLS12-10-2018DISCHARGE (KAF)14717385
4WGCM8MF FLATHEAD-NEAR WEST GLACIER12-10-2018DISCHARGE (KAF)7415548
5HHWM8SF FLATHEAD-HUNGRY HORSE DAM12-10-2018INFLOW (KAF)19025475
6CFMM8FLATHEAD-AT COLUMBIA FALLS12-10-2018DISCHARGE (KAF)881115276
7DLGM8CLARK FORK-AT DEER LODGE12-10-2018DISCHARGE (KAF)6362101
8DRMM8CLARK FORK-NR DRUMMOND12-10-2018DISCHARGE (KAF)153MM
9RCCM8ROCK CREEK-NEAR CLINTON12-10-2018DISCHARGE (KAF)5346114
10BONM8BLACKFOOT-NEAR BONNER12-10-2018DISCHARGE (KAF)13814496
11ABOM8CLARK FORK-ABOVE MISSOULA12-10-2018DISCHARGE (KAF)357356100
12BITM8BITTERROOT-NEAR MISSOULA12-10-2018DISCHARGE (KAF)21823593
13BELM8CLARK FORK-BELOW MISSOULA12-10-2018DISCHARGE (KAF)57359796
14STRM8ST. REGIS-NEAR ST. REGIS12-10-2018DISCHARGE (KAF)215936
15SRGM8CLARK FORK-AT ST REGIS12-10-2018DISCHARGE (KAF)73881091
16KERM8FLATHEAD-KERR DAM12-10-2018INFLOW (KAF)1001152066
17NOXM8CLARK FORK-NOXON RAPIDS DAM12-10-2018INFLOW (KAF)2430374665
18CABI1CLARK FORK-CABINET GORGE DAM12-10-2018INFLOW (KAF)2688391369
19PRTI1PRIEST-NEAR PRIEST RIVER12-10-2018DISCHARGE (KAF)14423063
20ALFW1PEND OREILLE-ALBENI FALLS DAM12-10-2018INFLOW (KAF)3099464467
21HOPI1PEND OREILLE-PEND OREILLE LAKE NR HOPE12-10-2018LAKE ELEVATION (FT)MMM
22COEI1COEUR D ALENE-COEUR D ALENE LAKE12-10-2018INFLOW (KAF)1054126683
23SPOW1SPOKANE-AT SPOKANE12-10-2018DISCHARGE (KAF)967MM
24LLKW1SPOKANE-AT LONGLAKE12-10-2018INFLOW (KAF)1339174977
25SATI1ST MARIES-NEAR SANTA12-10-2018DISCHARGE (KAF)327642
26SJMI1ST JOE-AT ST MARIES12-10-2018STAGE (FT)MMM
27CIBW1COLUMBIA-AT INTL BOUNDARY12-10-2018DISCHARGE (KAF)16279MM
28LAUW1KETTLE-AT LAURIER12-10-2018DISCHARGE (KAF)13115783
29GCDW1COLUMBIA-GRAND COULEE DAM12-10-2018INFLOW (KAF)1783917023105
30CHJW1COLUMBIA-CHIEF JOSEPH DAM12-10-2018INFLOW (KAF)193522299484
31TONW1OKANOGAN-NEAR TONASKET12-10-2018DISCHARGE (KAF)26129887
32PATW1METHOW-NEAR PATEROS12-10-2018DISCHARGE (KAF)8410679
33WELW1COLUMBIA-WELLS DAM12-10-2018INFLOW (KAF)197022339984
34CHDW1CHELAN-LAKE CHELAN DAM12-10-2018INFLOW (KAF)15317886
35RRHW1COLUMBIA-ROCKY REACH DAM12-10-2018INFLOW (KAF)201232396284
36ARDW1ENTIAT-NEAR ARDENVOIR12-10-2018DISCHARGE (KAF)222491
37PESW1WENATCHEE-AT PESHASTIN12-10-2018DISCHARGE (KAF)29733389
38WANW1COLUMBIA-WANAPUM DAM12-10-2018INFLOW (KAF)204252101797
39PRWW1COLUMBIA-PRIEST RAPIDS DAM12-10-2018INFLOW (KAF)204262129196
40KEDW1YAKIMA-KEECHELUS LAKE12-10-2018INFLOW (KAF)5251103
41KADW1KACHESS-KACHESS DAM12-10-2018INFLOW (KAF)485095
42EASW1YAKIMA-AT EASTON12-10-2018DISCHARGE (KAF)9185107
43CLUW1CLE ELUM-CLE ELUM LAKE12-10-2018INFLOW (KAF)10011091
44TNAW1TEANAWAY-BELOW FORKS12-10-2018DISCHARGE (KAF)666994
45UMTW1YAKIMA-AT UMTANUM12-10-2018DISCHARGE (KAF)33134696
46BUDW1BUMPING-BUMPING LAKE DAM12-10-2018INFLOW (KAF)193750
47CLFW1NACHES-NEAR CLIFFDEL12-10-2018DISCHARGE (KAF)7113652
48RILW1TIETON-RIMROCK LAKE NEAR RIMROCK12-10-2018INFLOW (KAF)387551
49NACW1NACHES-NEAR NACHES12-10-2018DISCHARGE (KAF)7312758
50PARW1YAKIMA-NEAR PARKER12-10-2018DISCHARGE (KAF)43458574
51KIOW1YAKIMA-AT KIONA12-10-2018DISCHARGE (KAF)61286771
52IPDI1HENRYS FORK-ISLAND PARK DAM12-10-2018INFLOW (KAF)7611168
53CHEI1FALL RIVER-NEAR CHESTER12-10-2018DISCHARGE (KAF)10410995
54ANTI1HENRYS FORK-AT ST. ANTHONY12-10-2018DISCHARGE (KAF)365347105
55TEAI1TETON-NEAR ST. ANTHONY12-10-2018DISCHARGE (KAF)859886
56REXI1HENRYS FORK-AT REXBURG12-10-2018DISCHARGE (KAF)42743299
57JLKW4SNAKE-JACKSON LAKE AT DAM12-10-2018INFLOW (KAF)10211887
58JKSW4SNAKE-NEAR JACKSON12-10-2018DISCHARGE (KAF)29630497
59ALPW4SNAKE-NEAR ALPINE12-10-2018DISCHARGE (KAF)34837593
60PLDI1SF SNAKE-PALISADES DAM12-10-2018INFLOW (KAF)54760590
61HEII1SNAKE-NEAR HEISE12-10-2018DISCHARGE (KAF)42357374
62RIDI1WILLOW CREEK-RIRIE DAM12-10-2018INFLOW (KAF)111290
63SIFI1SNAKE-AB EAGLE ROCK NR IDAHO FALLS12-10-2018DISCHARGE (KAF)67882183
64SHYI1SNAKE-NEAR SHELLEY12-10-2018DISCHARGE (KAF)64983578
65SNAI1SNAKE-AT BLACKFOOT12-10-2018DISCHARGE (KAF)56876274
66BFTI1SNAKE-NEAR BLACKFOOT12-10-2018DISCHARGE (KAF)57181070
67PIHI1PORTNEUF-AT POCATELLO12-10-2018DISCHARGE (KAF)497763
68AFRI1SNAKE-AMERICAN FALLS RESERVOIR12-10-2018INFLOW (KAF)1194153478
69MILI1SNAKE-AT MILNER12-10-2018DISCHARGE (KAF)247473
70HOTI1BRUNEAU-NEAR HOT SPRINGS12-10-2018DISCHARGE (KAF)244455
71SWAI1SNAKE-BELOW SWAN FALLS12-10-2018DISCHARGE (KAF)1750269465
72HWRI1BIG LOST-AT HOWELL RANCH NEAR CHILLY12-10-2018DISCHARGE (KAF)2119111
73MACI1BIG LOST-MACKAY RESERVOIR NEAR MACKAY12-10-2018INFLOW (KAF)375751
74HALI1BIG WOOD-AT HAILEY12-10-2018DISCHARGE (KAF)303977
75MAGI1BIG WOOD-MAGIC DAM12-10-2018INFLOW (KAF)295256
76LWRI1LITTLE WOOD-LITTLE WOOD DAM12-10-2018INFLOW (KAF)91949
77OWYO3OWYHEE-OWYHEE DAM12-10-2018INFLOW (KAF)10519554
78ARAI1SF BOISE-ANDERSON RANCH DAM12-10-2018INFLOW (KAF)7210369
79LUCI1BOISE-LUCKY PEAK DAM12-10-2018INFLOW (KAF)231MM
80BIGI1BOISE-AT GLENWOOD BRIDGE12-10-2018DISCHARGE (KAF)14855269
81PARI1BOISE-NEAR PARMA12-10-2018DISCHARGE (KAF)281232121
82WRMO3MALHEUR-WARM SPRINGS DAM12-10-2018INFLOW (KAF)276046
83BERO3MALHEUR-AGENCY VALLEY DAM12-10-2018INFLOW (KAF)133240
84BULO3BULLY CREEK-BULLY CREEK DAM12-10-2018INFLOW (KAF)108122
85VALO3MALHEUR-NEAR VALE12-10-2018DISCHARGE (KAF)194541
86CSDI1NF PAYETTE-CASCADE DAM12-10-2018INFLOW (KAF)8011769
87DEDI1DEADWOOD-NEAR LOWMAN12-10-2018INFLOW (KAF)152072
88EMMI1PAYETTE-NEAR EMMETT12-10-2018DISCHARGE (KAF)34647173
89WSRI1WEISER-NEAR WEISER12-10-2018DISCHARGE (KAF)21021299
90WEII1SNAKE-AT WEISER12-10-2018DISCHARGE (KAF)2847421768
91BRNI1SNAKE-BROWNLEE DAM12-10-2018INFLOW (KAF)3087443270
92WHBI1SALMON-AT WHITEBIRD12-10-2018DISCHARGE (KAF)908112181
93TRYO3GRANDE RONDE-TROY12-10-2018DISCHARGE (KAF)31854958
94ANAW1SNAKE-NEAR ANATONE12-10-2018DISCHARGE (KAF)4415687764
95ORFI1CLEARWATER-AT OROFINO12-10-2018DISCHARGE (KAF)796107074
96DWRI1NF CLEARWATER-DWORSHAK DAM12-10-2018INFLOW (KAF)72584086
97SPDI1CLEARWATER-AT SPALDING12-10-2018DISCHARGE (KAF)1428228363
98LGDW1SNAKE-LOWER GRANITE DAM12-10-2018INFLOW (KAF)5843932263
99LGSW1SNAKE-LITTLE GOOSE DAM12-10-2018INFLOW (KAF)5843938362
100LMNW1SNAKE-LOWER MONUMENTAL DAM12-10-2018INFLOW (KAF)6377962766
101IHDW1SNAKE-ICE HARBOR DAM12-10-2018INFLOW (KAF)6377954667
102TCHW1WALLA WALLA-NEAR TOUCHET12-10-2018DISCHARGE (KAF)18019991
103MCDW1COLUMBIA-MCNARY DAM12-10-2018INFLOW (KAF)275723298984
104GIBO3UMATILLA-NEAR GIBBON12-10-2018DISCHARGE (KAF)5756102
105PDTO3UMATILLA-AT PENDLETON12-10-2018DISCHARGE (KAF)13914794
106MYKO3MCKAY CREEK-NEAR PILOT ROCK12-10-2018DISCHARGE (KAF)4634135
107UMAO3UMATILLA-NEAR UMATILLA12-10-2018DISCHARGE (KAF)14815198
108MONO3NF JOHN DAY-AT MONUMENT12-10-2018DISCHARGE (KAF)12427945
109SERO3JOHN DAY-AT SERVICE CK12-10-2018DISCHARGE (KAF)23544952
110JDAO3COLUMBIA-JOHN DAY DAM12-10-2018INFLOW (KAF)291223474384
111MODO3DESCHUTES-AT MOODY NR BIGGS12-10-2018DISCHARGE (KAF)1423156891
112TDAO3COLUMBIA-THE DALLES DAM12-10-2018INFLOW (KAF)297173896976
113PITW1KLICKITAT-NEAR PITT12-10-2018DISCHARGE (KAF)423403105
114HODO3HOOD-NEAR TUCKER BRIDGE12-10-2018DISCHARGE (KAF)290277104
115UNDW1WHITE SALMON-NEAR UNDERWOOD12-10-2018DISCHARGE (KAF)30331297
116BONO3COLUMBIA-BONNEVILLE DAM12-10-2018INFLOW (KAF)307244150874